Weather History for Lumberton, NC

Change the Weather History Date:

Tuesday, January 31, 2012

  Actual Average Record
Temperature  
Mean Temperature 49 °F 44 °F  
Max Temperature 65 °F 55 °F 77 °F (2002)
Min Temperature 32 °F 34 °F 21 °F (2014)
Degree Days  
Heating Degree Days 16 21  
Month to date heating degree days 478 672  
Since 1 July heating degree days 1382 1719  
Cooling Degree Days 0 0  
Month to date cooling degree days 0 1  
Year to date cooling degree days 0 1  
Moisture  
Dew Point 31 °F    
Average Humidity 60    
Maximum Humidity 96    
Minimum Humidity 24    
Precipitation  
Precipitation 0.00 in 0.12 in 0.33 in (2013)
Month to date precipitation 2.16 2.97  
Year to date precipitation 2.16 2.97  
Sea Level Pressure  
Sea Level Pressure 30.36 in    
Wind  
Wind Speed 5 mph (SW)    
Max Wind Speed 15 mph    
Max Gust Speed 21 mph    
Visibility 10 miles    
Events      
T = Trace of Precipitation, MM = Missing Value Source: NWS Daily Summary

Daily Weather History Graph

Daily Weather History Graph

Search for Another Location

Airport:

Trip Planner

Search our weather history database for the weather conditions in past years. The results will help you decide how hot, cold, wet, or windy it might be!

Date:

Astronomy

Jan. 31, 2012 Rise Set
Actual Time 7:15 AM EST 5:44 PM EST
Civil Twilight 6:48 AM EST 6:10 PM EST
Nautical Twilight 6:18 AM EST 6:40 PM EST
Astronomical Twilight 5:48 AM EST 7:10 PM EST
Moon 11:35 AM EST (1/31) 1:00 AM EST (1/31)
Length of Visible Light 11h 21m
Length of Day
10h 28m
First Quarter, 55% of the Moon is Illuminated
Jan 31
First Quarter
Feb 7
Full
Feb 14
Last Quarter
Feb 21
New
Feb 29
First Quarter

Hourly Weather History & Observations

Time (EST) Temp. Windchill Dew Point Humidity Pressure Visibility Wind Dir Wind Speed Gust Speed Precip Events Conditions
12:54 AM 41.0 °F 37.1 °F 28.9 °F 62% 30.41 in 10.0 mi SW 5.8 mph - N/A   Clear
1:54 AM 39.9 °F 37.8 °F 28.9 °F 65% 30.40 in 10.0 mi WSW 3.5 mph - N/A   Clear
2:54 AM 37.0 °F 33.3 °F 30.0 °F 76% 30.39 in 10.0 mi SSW 4.6 mph - N/A   Clear
3:54 AM 39.9 °F 35.8 °F 32.0 °F 73% 30.38 in 10.0 mi SW 5.8 mph - N/A   Clear
4:54 AM 39.0 °F 34.8 °F 32.0 °F 76% 30.39 in 10.0 mi WSW 5.8 mph - N/A   Clear
5:54 AM 36.0 °F - 32.0 °F 86% 30.39 in 10.0 mi Calm Calm - N/A   Clear
6:54 AM 33.1 °F - 30.9 °F 92% 30.40 in 10.0 mi Calm Calm - N/A   Clear
7:54 AM 34.0 °F - 32.0 °F 92% 30.42 in 10.0 mi Calm Calm - N/A   Clear
8:54 AM 44.1 °F - 37.0 °F 76% 30.43 in 10.0 mi Calm Calm - N/A   Clear
10:54 AM 57.0 °F - 34.0 °F 42% 30.43 in 10.0 mi SW 9.2 mph - N/A   Clear
11:54 AM 61.0 °F - 30.9 °F 32% 30.41 in 10.0 mi WSW 9.2 mph - N/A   Clear
12:54 PM 64.0 °F - 30.0 °F 28% 30.38 in 10.0 mi WSW 10.4 mph 18.4 mph N/A   Clear
1:54 PM 64.0 °F - 28.9 °F 27% 30.34 in 10.0 mi SSW 10.4 mph - N/A   Clear
2:54 PM 64.9 °F - 27.0 °F 24% 30.32 in 10.0 mi WSW 11.5 mph 18.4 mph N/A   Clear
3:54 PM 64.9 °F - 28.0 °F 25% 30.31 in 10.0 mi SW 9.2 mph - N/A   Clear
4:54 PM 63.0 °F - 30.0 °F 29% 30.30 in 10.0 mi SSW 9.2 mph - N/A   Clear
5:54 PM 59.0 °F - 28.9 °F 32% 30.30 in 10.0 mi SSW 4.6 mph - N/A   Clear
6:54 PM 52.0 °F - 30.9 °F 45% 30.31 in 10.0 mi Calm Calm - N/A   Clear
7:54 PM 46.9 °F - 34.0 °F 61% 30.33 in 10.0 mi South 4.6 mph - N/A   Clear
8:54 PM 48.9 °F - 30.9 °F 50% 30.32 in 10.0 mi SSE 4.6 mph - N/A   Clear
9:54 PM 51.1 °F - 32.0 °F 48% 30.32 in 10.0 mi South 4.6 mph - N/A   Clear
10:54 PM 51.1 °F - 32.0 °F 48% 30.31 in 10.0 mi SSW 4.6 mph - N/A   Clear
11:54 PM 50.0 °F - 35.1 °F 57% 30.30 in 10.0 mi SSW 4.6 mph - N/A   Clear